Total_Precipitation_Accumulation
0.14 0.16 0.19 0.17 0.17 0.20 0.24 0.35 0.52 0.38 0.10 0.02 0.02 0.03 0.08 0.13 0.14 0.12 0.11 0.14 0.19 0.23 0.28 0.32 0.39 0.56 0.87 1.34 1.90 2.79 3.37 3.02 2.24 1.68 1.52 1.72 2.07 2.49
0.18 0.20 0.21 0.21 0.24 0.26 0.28 0.29 0.38 0.47 0.28 0.03 0.02 0.04 0.09 0.16 0.17 0.14 0.13 0.14 0.16 0.18 0.20 0.22 0.27 0.38 0.59 0.90 1.29 1.85 2.71 3.17 2.93 2.39 1.91 1.89 2.01 2.33
0.18 0.22 0.24 0.26 0.33 0.35 0.39 0.38 0.34 0.38 0.38 0.09 0.02 0.04 0.12 0.20 0.19 0.14 0.14 0.13 0.11 0.13 0.16 0.19 0.22 0.30 0.44 0.64 0.88 1.22 1.82 2.57 3.00 3.00 2.59 2.25 2.12 2.13
0.21 0.25 0.28 0.31 0.36 0.41 0.48 0.49 0.41 0.36 0.41 0.25 0.06 0.05 0.12 0.23 0.27 0.21 0.18 0.15 0.11 0.12 0.16 0.20 0.25 0.30 0.38 0.50 0.67 0.89 1.23 1.78 2.34 2.73 2.80 2.46 2.25 2.23
0.25 0.31 0.35 0.39 0.38 0.41 0.51 0.56 0.50 0.42 0.42 0.38 0.17 0.08 0.11 0.23 0.33 0.31 0.26 0.24 0.18 0.15 0.16 0.19 0.23 0.29 0.34 0.41 0.54 0.69 0.86 1.06 1.48 2.07 2.62 2.68 2.45 2.37
0.19 0.24 0.36 0.50 0.55 0.59 0.60 0.59 0.60 0.60 0.55 0.50 0.35 0.20 0.17 0.24 0.40 0.45 0.39 0.33 0.28 0.23 0.20 0.19 0.21 0.27 0.31 0.33 0.36 0.47 0.65 0.91 1.19 1.60 2.06 2.47 2.53 2.46
0.18 0.20 0.31 0.52 0.69 0.88 0.95 0.83 0.82 0.89 0.83 0.77 0.64 0.47 0.35 0.38 0.47 0.51 0.57 0.47 0.42 0.34 0.26 0.20 0.20 0.20 0.20 0.26 0.31 0.35 0.46 0.63 0.84 1.15 1.56 1.93 2.25 2.42
0.21 0.20 0.28 0.49 0.63 0.73 0.86 0.89 0.95 1.11 1.16 1.08 0.94 0.75 0.53 0.43 0.47 0.58 0.70 0.75 0.64 0.48 0.37 0.28 0.27 0.25 0.20 0.20 0.24 0.29 0.36 0.48 0.66 0.89 1.17 1.49 1.84 2.17
0.20 0.19 0.23 0.35 0.47 0.56 0.60 0.62 0.69 0.84 1.08 1.20 1.15 0.85 0.67 0.54 0.63 0.73 0.73 0.80 0.71 0.68 0.64 0.54 0.37 0.32 0.26 0.27 0.31 0.29 0.34 0.42 0.52 0.68 0.94 1.19 1.48 1.81
0.19 0.16 0.14 0.22 0.35 0.52 0.61 0.57 0.54 0.62 0.87 1.10 1.27 1.09 0.89 0.85 0.97 1.08 1.05 0.99 0.87 0.87 0.86 0.89 0.66 0.46 0.38 0.34 0.34 0.30 0.32 0.37 0.45 0.54 0.72 0.93 1.15 1.47
0.17 0.15 0.12 0.13 0.28 0.47 0.51 0.46 0.40 0.47 0.60 0.82 0.96 0.98 0.94 1.04 1.23 1.52 1.57 1.44 1.22 1.06 0.99 0.98 0.96 0.84 0.74 0.60 0.50 0.41 0.35 0.37 0.42 0.50 0.60 0.75 0.94 1.29
0.14 0.14 0.16 0.21 0.30 0.39 0.39 0.41 0.49 0.46 0.43 0.46 0.49 0.52 0.58 0.69 1.00 1.41 1.62 1.58 1.36 1.31 1.21 1.05 1.11 1.13 1.27 1.08 0.78 0.56 0.43 0.43 0.45 0.49 0.54 0.60 0.76 0.97
0.19 0.19 0.14 0.22 0.28 0.31 0.35 0.39 0.54 0.49 0.41 0.44 0.44 0.41 0.41 0.51 0.69 0.99 1.38 1.63 1.57 1.41 1.31 1.27 1.39 1.18 1.19 1.23 1.04 0.77 0.53 0.45 0.45 0.52 0.57 0.59 0.65 0.71
0.20 0.16 0.12 0.18 0.23 0.29 0.31 0.37 0.41 0.42 0.40 0.39 0.35 0.34 0.37 0.45 0.57 0.75 1.00 1.30 1.45 1.39 1.26 1.32 1.56 1.31 1.03 0.97 0.99 0.94 0.71 0.57 0.48 0.47 0.49 0.65 0.74 0.75
0.28 0.26 0.18 0.20 0.21 0.18 0.19 0.25 0.29 0.30 0.37 0.39 0.34 0.29 0.34 0.44 0.51 0.59 0.69 0.92 1.13 1.19 1.21 1.29 1.47 1.46 1.22 0.98 0.79 0.79 0.80 0.80 0.65 0.56 0.54 0.55 0.57 0.61
0.29 0.22 0.19 0.18 0.15 0.11 0.09 0.11 0.14 0.19 0.29 0.34 0.32 0.27 0.26 0.32 0.43 0.55 0.65 0.76 0.96 1.07 1.15 1.31 1.53 1.68 1.54 1.08 0.83 0.73 0.66 0.82 0.83 0.69 0.62 0.59 0.55 0.48
0.35 0.33 0.24 0.19 0.17 0.13 0.10 0.07 0.08 0.11 0.17 0.22 0.27 0.29 0.29 0.31 0.35 0.45 0.63 0.75 0.89 0.98 1.11 1.37 1.64 1.75 1.76 1.50 1.19 0.87 0.65 0.65 0.74 0.71 0.68 0.70 0.71 0.60
0.37 0.36 0.23 0.16 0.15 0.14 0.13 0.10 0.08 0.09 0.10 0.16 0.22 0.26 0.31 0.35 0.37 0.39 0.54 0.72 0.84 0.93 1.01 1.21 1.55 1.79 1.92 1.90 1.51 1.05 0.78 0.71 0.82 0.83 0.73 0.71 0.80 0.76
0.29 0.22 0.15 0.13 0.13 0.12 0.13 0.12 0.10 0.07 0.10 0.14 0.18 0.21 0.25 0.31 0.36 0.39 0.46 0.60 0.72 0.85 0.97 1.09 1.32 1.60 1.75 1.88 1.88 1.38 0.97 0.83 0.94 1.08 0.96 0.74 0.68 0.75
0.17 0.16 0.15 0.13 0.13 0.14 0.13 0.13 0.11 0.09 0.10 0.11 0.13 0.15 0.20 0.27 0.32 0.35 0.41 0.54 0.65 0.77 0.90 1.01 1.21 1.42 1.51 1.48 1.57 1.62 1.43 1.08 0.96 1.11 1.15 0.99 0.86 0.94
0.13 0.13 0.14 0.15 0.15 0.15 0.14 0.13 0.13 0.11 0.09 0.10 0.10 0.11 0.15 0.22 0.27 0.29 0.36 0.45 0.56 0.67 0.77 0.87 1.05 1.23 1.42 1.46 1.36 1.35 1.53 1.54 1.16 1.03 1.10 1.13 1.10 1.12
0.14 0.15 0.14 0.15 0.16 0.16 0.15 0.14 0.13 0.10 0.09 0.09 0.09 0.09 0.11 0.17 0.22 0.26 0.33 0.40 0.47 0.56 0.68 0.80 0.93 1.13 1.38 1.50 1.42 1.29 1.40 1.62 1.62 1.38 1.20 1.05 0.94 0.88
0.18 0.17 0.16 0.15 0.15 0.16 0.16 0.14 0.13 0.10 0.08 0.09 0.09 0.09 0.10 0.13 0.15 0.21 0.28 0.35 0.42 0.48 0.59 0.76 0.91 1.06 1.28 1.44 1.45 1.33 1.29 1.42 1.47 1.43 1.52 1.32 0.92 0.64